Location: Bayshore Village Mobile Home Park
(26.6945°N, 81.8642°W)
Time: 22:27:03
(UTC+00:00)

Cosmos 2266 Rocket - Pass Details

Date: 17 June 2021
Orbit: 935 x 1007 km, 82.9° (Epoch: 31 July)

Event Time Altitude Azimuth Distance (km) Brightness Sun altitude
Exits shadow 08:34:26 32° 180° (S) 1,573 4.7 -22.7°
Maximum altitude 08:37:27 84° 94° (E) 965 3.9 -22.2°
Drops below altitude 10° 08:43:34 10° 7° (N) 2,668 6.9 -21.2°
Sets 08:46:02 0° 6° (N) 3,608 7.7 -20.8°
